| time (UTC) | temp C | wind direction | speed KPH | gust KPH | rain 1hr cm | rain 24hr cm | rain mn cm | humidity % | barometer mb |
| 20260506184504 | 13 | 90 | 1.6 | 3.2 | 0.00 | 0.00 | 0.00 | 52 | 1016.8 |
| 20260506183814 | 13 | 92 | 1.6 | 3.2 | 0.00 | 0.00 | 0.00 | 50 | 1016.8 |
| 20260506182703 | 13 | 71 | 1.6 | 3.2 | 0.00 | 0.00 | 0.00 | 50 | 1016.7 |
| 20260506182013 | 13 | 95 | 1.6 | 3.2 | 0.00 | 0.00 | 0.00 | 50 | 1016.5 |
| 20260506180903 | 13 | 47 | 3.2 | 4.8 | 0.00 | 0.00 | 0.00 | 49 | 1016.6 |
| 20260506180004 | 13 | 32 | 4.8 | 6.4 | 0.00 | 0.00 | 0.00 | 47 | 1016.5 |
| 20260506175613 | 13 | 61 | 4.8 | 4.8 | 0.00 | 0.00 | 0.00 | 48 | 1016.7 |
| 20260506174503 | 13 | 71 | 3.2 | 3.2 | 0.00 | 0.00 | 0.00 | 48 | 1016.4 |
| 20260506173603 | 13 | 83 | 3.2 | 6.4 | 0.00 | 0.00 | 0.00 | 48 | 1016.3 |
| 20260506172913 | 13 | 87 | 3.2 | 6.4 | 0.00 | 0.00 | 0.00 | 47 | 1016.4 |
| 20260506171803 | 14 | 72 | 3.2 | 4.8 | 0.00 | 0.00 | 0.00 | 46 | 1016.2 |
| 20260506170903 | 14 | 93 | 3.2 | 4.8 | 0.00 | 0.00 | 0.00 | 46 | 1016.3 |
| 20260506170003 | 14 | 65 | 3.2 | 4.8 | 0.00 | 0.00 | 0.00 | 46 | 1016.2 |
| 20260506165613 | 14 | 68 | 3.2 | 4.8 | 0.00 | 0.00 | 0.00 | 46 | 1016.1 |
| 20260506164714 | 14 | 101 | 3.2 | 6.4 | 0.00 | 0.00 | 0.00 | 45 | 1016.3 |
| 20260506163603 | 14 | 70 | 4.8 | 6.4 | 0.00 | 0.00 | 0.00 | 45 | 1016.3 |
| 20260506162703 | 14 | 88 | 4.8 | 8.0 | 0.00 | 0.00 | 0.00 | 46 | 1016.4 |
| 20260506161803 | 15 | 24 | 3.2 | 8.0 | 0.00 | 0.00 | 0.00 | 44 | 1016.2 |
| 20260506160903 | 15 | 62 | 3.2 | 6.4 | 0.00 | 0.00 | 0.00 | 43 | 1016.3 |
| 20260506160004 | 15 | 63 | 4.8 | 6.4 | 0.00 | 0.00 | 0.00 | 43 | 1016.1 |
| 20260506155403 | 15 | 63 | 3.2 | 4.8 | 0.00 | 0.00 | 0.00 | 44 | 1016.1 |
| 20260506154503 | 15 | 53 | 6.4 | 11.3 | 0.00 | 0.00 | 0.00 | 42 | 1016.4 |
| 20260506153603 | 16 | 74 | 3.2 | 8.0 | 0.00 | 0.00 | 0.00 | 40 | 1016.4 |
| 20260506152912 | 16 | 87 | 4.8 | 6.4 | 0.00 | 0.00 | 0.00 | 41 | 1016.5 |
| 20260506151803 | 16 | 31 | 6.4 | 12.9 | 0.00 | 0.00 | 0.00 | 42 | 1016.3 |
| 20260506150903 | 17 | 311 | 6.4 | 9.7 | 0.00 | 0.00 | 0.00 | 40 | 1016.4 |
| 20260506150214 | 17 | 290 | 6.4 | 12.9 | 0.00 | 0.00 | 0.00 | 41 | 1016.4 |
| 20260506145403 | 17 | 340 | 6.4 | 12.9 | 0.00 | 0.00 | 0.00 | 41 | 1016.4 |
| 20260506144713 | 17 | 106 | 4.8 | 6.4 | 0.00 | 0.00 | 0.00 | 42 | 1016.5 |
| 20260506143603 | 16 | 340 | 4.8 | 9.7 | 0.00 | 0.00 | 0.00 | 43 | 1016.7 |
| 20260506142703 | 15 | 357 | 4.8 | 6.4 | 0.00 | 0.00 | 0.00 | 44 | 1016.6 |
| 20260506141803 | 15 | 41 | 4.8 | 6.4 | 0.00 | 0.00 | 0.00 | 47 | 1016.9 |
| 20260506140903 | 15 | 343 | 4.8 | 6.4 | 0.00 | 0.00 | 0.00 | 45 | 1016.8 |
| 20260506140003 | 14 | 31 | 4.8 | 6.4 | 0.00 | 0.00 | 0.00 | 47 | 1016.9 |
| 20260506135403 | 14 | 11 | 4.8 | 6.4 | 0.00 | 0.00 | 0.00 | 47 | 1016.9 |
| 20260506134503 | 14 | 100 | 4.8 | 6.4 | 0.00 | 0.00 | 0.00 | 47 | 1016.8 |
| 20260506133603 | 14 | 36 | 4.8 | 8.0 | 0.00 | 0.00 | 0.00 | 47 | 1017.0 |
| 20260506132703 | 14 | 38 | 4.8 | 8.0 | 0.00 | 0.00 | 0.00 | 48 | 1017.3 |
| 20260506132013 | 14 | 352 | 4.8 | 9.7 | 0.00 | 0.00 | 0.00 | 49 | 1017.1 |
| 20260506130903 | 14 | 71 | 4.8 | 9.7 | 0.00 | 0.00 | 0.00 | 50 | 1017.1 |
| 20260506130004 | 14 | 1 | 6.4 | 9.7 | 0.00 | 0.00 | 0.00 | 50 | 1017.0 |
| 20260506125403 | 13 | 14 | 6.4 | 9.7 | 0.00 | 0.00 | 0.00 | 50 | 1017.0 |
| 20260506124503 | 13 | 91 | 4.8 | 8.0 | 0.00 | 0.00 | 0.00 | 50 | 1017.0 |
| 20260506123603 | 13 | 15 | 4.8 | 8.0 | 0.00 | 0.00 | 0.00 | 51 | 1017.1 |
| 20260506122913 | 13 | 41 | 6.4 | 9.7 | 0.00 | 0.00 | 0.00 | 51 | 1017.1 |
| 20260506121803 | 13 | 45 | 6.4 | 9.7 | 0.00 | 0.00 | 0.00 | 51 | 1017.0 |
| 20260506120903 | 12 | 27 | 6.4 | 8.0 | 0.00 | 0.00 | 0.00 | 51 | 1017.2 |
| 20260506120004 | 12 | 72 | 6.4 | 9.7 | 0.00 | 0.00 | 0.00 | 52 | 1017.0 |
| 20260506115613 | 12 | 97 | 6.4 | 9.7 | 0.00 | 0.00 | 0.00 | 52 | 1017.0 |
| 20260506114503 | 12 | 50 | 6.4 | 9.7 | 0.00 | 0.00 | 0.00 | 53 | 1017.1 |
| 20260506113603 | 12 | 61 | 6.4 | 8.0 | 0.00 | 0.00 | 0.00 | 60 | 1017.2 |
| 20260506112703 | 12 | 337 | 6.4 | 9.7 | 0.00 | 0.00 | 0.00 | 61 | 1017.3 |
| 20260506111803 | 12 | 345 | 6.4 | 9.7 | 0.00 | 0.00 | 0.00 | 61 | 1017.0 |
| 20260506110903 | 11 | 332 | 6.4 | 9.7 | 0.00 | 0.00 | 0.00 | 61 | 1017.2 |
| 20260506110003 | 11 | 39 | 8.0 | 11.3 | 0.00 | 0.00 | 0.00 | 61 | 1017.3 |
| 20260506105612 | 11 | 9 | 6.4 | 11.3 | 0.00 | 0.00 | 0.00 | 61 | 1017.2 |
| 20260506104714 | 12 | 7 | 4.8 | 6.4 | 0.00 | 0.00 | 0.00 | 62 | 1017.2 |
| 20260506103603 | 11 | 18 | 6.4 | 9.7 | 0.00 | 0.00 | 0.00 | 61 | 1017.2 |
| 20260506102913 | 11 | 30 | 6.4 | 9.7 | 0.00 | 0.00 | 0.00 | 63 | 1017.1 |
| 20260506101803 | 11 | 55 | 8.0 | 11.3 | 0.00 | 0.00 | 0.00 | 62 | 1017.3 |
| 20260506100903 | 11 | 79 | 6.4 | 8.0 | 0.00 | 0.00 | 0.00 | 62 | 1017.3 |
| 20260506100003 | 11 | 66 | 8.0 | 11.3 | 0.00 | 0.00 | 0.00 | 64 | 1017.3 |
| 20260506095403 | 11 | 48 | 8.0 | 11.3 | 0.00 | 0.00 | 0.00 | 64 | 1017.3 |
| 20260506094713 | 11 | 33 | 6.4 | 9.7 | 0.00 | 0.00 | 0.00 | 65 | 1017.2 |
| 20260506093603 | 10 | 72 | 9.7 | 11.3 | 0.00 | 0.00 | 0.00 | 68 | 1017.1 |
| 20260506092703 | 10 | 63 | 9.7 | 12.9 | 0.00 | 0.00 | 0.00 | 70 | 1017.2 |
| 20260506091803 | 10 | 38 | 9.7 | 12.9 | 0.00 | 0.00 | 0.00 | 72 | 1017.1 |
| 20260506090903 | 10 | 64 | 9.7 | 14.5 | 0.00 | 0.00 | 0.00 | 72 | 1017.0 |
| 20260506090003 | 10 | 76 | 9.7 | 14.5 | 0.00 | 0.00 | 0.00 | 72 | 1017.1 |
| 20260506085403 | 10 | 67 | 8.0 | 12.9 | 0.00 | 0.00 | 0.00 | 71 | 1017.1 |
| 20260506084503 | 10 | 53 | 8.0 | 12.9 | 0.00 | 0.00 | 0.00 | 71 | 1017.0 |
| 20260506083812 | 10 | 82 | 8.0 | 9.7 | 0.00 | 0.00 | 0.00 | 72 | 1016.9 |
| 20260506082703 | 10 | 66 | 9.7 | 12.9 | 0.00 | 0.00 | 0.00 | 72 | 1017.2 |
| 20260506081803 | 9 | 78 | 9.7 | 12.9 | 0.00 | 0.00 | 0.00 | 72 | 1017.1 |
| 20260506081112 | 9 | 59 | 9.7 | 12.9 | 0.00 | 0.00 | 0.00 | 72 | 1016.8 |
| 20260506072913 | 9 | 77 | 8.0 | 11.3 | 0.00 | 0.00 | 0.00 | 78 | 1016.5 |
| 20260506072013 | 9 | 25 | 8.0 | 9.7 | 0.00 | 0.00 | 0.00 | 79 | 1016.7 |
| 20260506070903 | 8 | 85 | 8.0 | 9.7 | 0.00 | 0.00 | 0.00 | 80 | 1016.8 |
| 20260506070213 | 8 | 93 | 8.0 | 9.7 | 0.00 | 0.00 | 0.00 | 80 | 1016.6 |
| 20260506061803 | 8 | 46 | 6.4 | 9.7 | 0.00 | 0.00 | 0.00 | 79 | 1016.6 |
| 20260506060903 | 9 | 58 | 6.4 | 8.0 | 0.00 | 0.00 | 0.00 | 79 | 1016.2 |
| 20260506060213 | 9 | 36 | 6.4 | 8.0 | 0.00 | 0.00 | 0.00 | 78 | 1016.5 |
| 20260506050903 | 9 | 59 | 8.0 | 11.3 | 0.00 | 0.00 | 0.00 | 80 | 1016.2 |
| 20260506050213 | 9 | 71 | 8.0 | 11.3 | 0.00 | 0.00 | 0.00 | 80 | 1016.2 |
| 20260506044503 | 9 | 74 | 4.8 | 6.4 | 0.00 | 0.00 | 0.00 | 80 | 1016.2 |
| 20260506043603 | 9 | 14 | 3.2 | 8.0 | 0.00 | 0.00 | 0.00 | 80 | 1016.1 |
| 20260506042912 | 9 | 48 | 4.8 | 8.0 | 0.00 | 0.00 | 0.00 | 80 | 1015.9 |
| 20260506041803 | 9 | 1 | 4.8 | 6.4 | 0.00 | 0.00 | 0.00 | 80 | 1015.9 |
| 20260506040903 | 9 | 40 | 4.8 | 6.4 | 0.00 | 0.00 | 0.00 | 80 | 1016.2 |
| 20260506040003 | 9 | 27 | 4.8 | 6.4 | 0.00 | 0.00 | 0.00 | 80 | 1015.9 |
| 20260506035614 | 9 | 30 | 4.8 | 6.4 | 0.00 | 0.00 | 0.00 | 80 | 1015.8 |
| 20260506034713 | 9 | 64 | 4.8 | 4.8 | 0.00 | 0.00 | 0.00 | 80 | 1015.7 |
| 20260506033603 | 9 | 81 | 3.2 | 4.8 | 0.00 | 0.00 | 0.00 | 80 | 1015.8 |
| 20260506032703 | 9 | 48 | 3.2 | 4.8 | 0.00 | 0.00 | 0.00 | 80 | 1015.7 |
| 20260506031803 | 9 | 87 | 3.2 | 4.8 | 0.00 | 0.00 | 0.00 | 80 | 1015.9 |
| 20260506030903 | 9 | 14 | 3.2 | 4.8 | 0.00 | 0.00 | 0.00 | 80 | 1016.1 |
| 20260506030003 | 9 | 62 | 3.2 | 4.8 | 0.00 | 0.00 | 0.00 | 80 | 1015.8 |
| 20260506025403 | 9 | 66 | 4.8 | 4.8 | 0.00 | 0.00 | 0.00 | 80 | 1015.9 |
| 20260506024503 | 9 | 42 | 3.2 | 4.8 | 0.00 | 0.00 | 0.00 | 79 | 1016.2 |
| 20260506023603 | 9 | 58 | 3.2 | 4.8 | 0.00 | 0.00 | 0.00 | 79 | 1016.0 |
| 20260506022703 | 9 | 42 | 3.2 | 4.8 | 0.00 | 0.00 | 0.00 | 78 | 1015.8 |
| 20260506021803 | 9 | 32 | 3.2 | 6.4 | 0.00 | 0.00 | 0.00 | 78 | 1016.1 |
| 20260506020903 | 9 | 22 | 4.8 | 6.4 | 0.00 | 0.00 | 0.00 | 77 | 1015.9 |
| 20260506020003 | 9 | 25 | 3.2 | 4.8 | 0.00 | 0.00 | 0.00 | 77 | 1015.9 |
| 20260506015613 | 9 | 37 | 4.8 | 4.8 | 0.00 | 0.00 | 0.00 | 76 | 1016.1 |
| 20260506014503 | 9 | 32 | 3.2 | 4.8 | 0.00 | 0.00 | 0.00 | 76 | 1016.0 |
| 20260506013603 | 10 | 58 | 3.2 | 4.8 | 0.00 | 0.00 | 0.00 | 76 | 1016.0 |
| 20260506012703 | 10 | 38 | 3.2 | 4.8 | 0.00 | 0.00 | 0.00 | 76 | 1016.0 |
| 20260506011803 | 9 | 354 | 3.2 | 3.2 | 0.00 | 0.00 | 0.00 | 75 | 1016.1 |
| 20260506011114 | 10 | 352 | 3.2 | 4.8 | 0.00 | 0.00 | 0.00 | 75 | 1016.3 |
| 20260506010004 | 10 | 346 | 4.8 | 6.4 | 0.00 | 0.00 | 0.00 | 76 | 1016.2 |
| 20260506005403 | 10 | 25 | 4.8 | 6.4 | 0.00 | 0.00 | 0.00 | 76 | 1016.3 |
| 20260506004503 | 10 | 27 | 3.2 | 6.4 | 0.00 | 0.00 | 0.00 | 76 | 1016.5 |
| 20260506003603 | 10 | 69 | 3.2 | 4.8 | 0.00 | 0.00 | 0.00 | 75 | 1016.5 |
| 20260506002703 | 10 | 55 | 3.2 | 4.8 | 0.00 | 0.00 | 0.00 | 75 | 1016.5 |
| 20260506001803 | 10 | 18 | 3.2 | 6.4 | 0.00 | 0.00 | 0.00 | 75 | 1016.4 |
| 20260506000903 | 10 | 55 | 3.2 | 6.4 | 0.00 | 0.00 | 0.00 | 75 | 1016.3 |
| 20260506000003 | 10 | 48 | 3.2 | 6.4 | 0.00 | 0.00 | 0.00 | 74 | 1016.4 |
| 20260505235403 | 10 | 54 | 3.2 | 4.8 | 0.00 | 0.00 | 0.00 | 74 | 1016.7 |
| 20260505234503 | 10 | 28 | 3.2 | 4.8 | 0.00 | 0.00 | 0.00 | 74 | 1016.3 |
| 20260505233603 | 10 | 16 | 3.2 | 4.8 | 0.00 | 0.00 | 0.00 | 74 | 1016.4 |